Location: Home
(42.5358°N, 72.7383°W)
Time: 21:33:32
(UTC-05:00)

Vanguard 2 - Pass Details

Date: 01 December 2021
Orbit: 553 x 2936 km, 32.9° (Epoch: 20 January)

Event Time Altitude Azimuth Distance (km) Brightness Sun altitude
Rises 12:09:22 0° 195° (SSW) 2,842 11.8 25.2°
Reaches altitude 10° 12:13:50 10° 151° (SSE) 2,239 10.9 25.1°
Maximum altitude 12:14:34 10° 143° (SE) 2,280 10.7 25.1°
Drops below altitude 10° 12:15:24 10° 134° (SE) 2,377 10.6 25.0°
Sets 12:21:15 0° 96° (E) 3,905 11.1 24.9°
